Time,TemperatureF,DewpointF,PressureIn,WindDirection,WindDirectionDegrees,WindSpeedMPH,WindSpeedGustMPH,Humidity,HourlyPrecipIn,Conditions,Clouds,dailyrainin,SoftwareType,DateUTC
2013-10-06 00:01:00,46.4,35.6,29.92,SW,225,3.4,5.6,66,0.00,,,0.00,WUHU216HW,2013-10-06 05:01:00,
2013-10-06 00:06:00,46.3,35.5,29.92,SSW,203,3.4,5.6,66,0.00,,,0.00,WUHU216HW,2013-10-06 05:06:00,
2013-10-06 00:11:00,46.1,35.4,29.91,SSW,203,2.5,6.9,66,0.00,,,0.00,WUHU216HW,2013-10-06 05:11:00,
2013-10-06 00:16:00,45.9,35.6,29.91,SSW,203,6.3,6.9,67,0.00,,,0.00,WUHU216HW,2013-10-06 05:16:00,
2013-10-06 00:21:00,45.7,35.4,29.91,SW,225,3.8,6.3,67,0.00,,,0.00,WUHU216HW,2013-10-06 05:21:00,
2013-10-06 00:26:00,45.7,35.4,29.92,SW,225,2.5,6.3,67,0.00,,,0.00,WUHU216HW,2013-10-06 05:26:00,
2013-10-06 00:31:00,45.7,35.4,29.91,SSW,203,4.5,5.8,67,0.00,,,0.00,WUHU216HW,2013-10-06 05:31:00,
2013-10-06 00:36:00,45.7,35.4,29.91,SW,225,1.8,5.8,67,0.00,,,0.00,WUHU216HW,2013-10-06 05:36:00,
2013-10-06 00:41:00,45.5,35.2,29.91,SW,225,4.7,5.6,67,0.00,,,0.00,WUHU216HW,2013-10-06 05:41:00,
2013-10-06 00:46:00,45.5,35.6,29.90,WSW,248,3.4,4.7,68,0.00,,,0.00,WUHU216HW,2013-10-06 05:46:00,
2013-10-06 00:51:00,45.4,35.4,29.90,WSW,248,2.5,4.9,68,0.00,,,0.00,WUHU216HW,2013-10-06 05:51:00,
2013-10-06 00:56:00,45.4,35.4,29.90,WNW,293,1.8,4.9,68,0.00,,,0.00,WUHU216HW,2013-10-06 05:56:00,
2013-10-06 01:01:00,45.2,35.2,29.91,WSW,248,2.5,3.4,68,0.00,,,0.00,WUHU216HW,2013-10-06 06:01:00,
2013-10-06 01:06:00,45.2,35.7,29.90,SW,225,3.6,5.1,69,0.00,,,0.00,WUHU216HW,2013-10-06 06:06:00,
2013-10-06 01:11:00,45.0,35.5,29.90,SW,225,2.9,5.1,69,0.00,,,0.00,WUHU216HW,2013-10-06 06:11:00,
2013-10-06 01:16:00,45.0,35.8,29.90,SSW,203,4.0,4.3,70,0.00,,,0.00,WUHU216HW,2013-10-06 06:16:00,
2013-10-06 01:21:00,44.6,35.8,29.90,WSW,248,4.7,6.3,71,0.00,,,0.00,WUHU216HW,2013-10-06 06:21:00,
2013-10-06 01:26:00,44.5,36.0,29.90,SW,225,5.6,6.3,72,0.00,,,0.00,WUHU216HW,2013-10-06 06:26:00,
2013-10-06 01:31:00,44.5,36.0,29.90,WSW,248,3.8,7.6,72,0.00,,,0.00,WUHU216HW,2013-10-06 06:31:00,
2013-10-06 01:36:00,44.3,35.8,29.90,SW,225,2.5,7.6,72,0.00,,,0.00,WUHU216HW,2013-10-06 06:36:00,
2013-10-06 01:41:00,44.3,35.8,29.90,SSW,203,2.5,5.4,72,0.00,,,0.00,WUHU216HW,2013-10-06 06:41:00,
2013-10-06 01:46:00,44.3,35.8,29.90,SW,225,2.0,4.9,72,0.00,,,0.00,WUHU216HW,2013-10-06 06:46:00,
2013-10-06 01:51:00,44.1,35.6,29.90,SSW,203,0.9,5.4,72,0.00,,,0.00,WUHU216HW,2013-10-06 06:51:00,
2013-10-06 01:56:00,44.1,35.6,29.90,WSW,248,2.7,5.4,72,0.00,,,0.00,WUHU216HW,2013-10-06 06:56:00,
2013-10-06 02:01:00,44.1,35.6,29.91,SSW,203,3.6,5.4,72,0.00,,,0.00,WUHU216HW,2013-10-06 07:01:00,
2013-10-06 02:06:00,43.9,35.5,29.91,SSW,203,2.5,5.4,72,0.00,,,0.00,WUHU216HW,2013-10-06 07:06:00,
2013-10-06 02:11:00,43.7,35.0,29.90,WSW,248,1.8,5.4,71,0.00,,,0.00,WUHU216HW,2013-10-06 07:11:00,
2013-10-06 02:16:00,43.7,35.3,29.90,SW,225,3.1,4.9,72,0.00,,,0.00,WUHU216HW,2013-10-06 07:16:00,
2013-10-06 02:21:00,43.9,35.8,29.90,WSW,248,4.0,5.8,73,0.00,,,0.00,WUHU216HW,2013-10-06 07:21:00,
2013-10-06 02:26:00,44.1,35.6,29.90,SW,225,4.7,6.9,72,0.00,,,0.00,WUHU216HW,2013-10-06 07:26:00,
2013-10-06 02:31:00,44.3,35.8,29.90,SW,225,5.1,6.9,72,0.00,,,0.00,WUHU216HW,2013-10-06 07:31:00,
2013-10-06 02:36:00,44.5,36.0,29.89,WSW,248,4.9,6.3,72,0.00,,,0.00,WUHU216HW,2013-10-06 07:36:00,
2013-10-06 02:41:00,44.5,36.0,29.89,SSW,203,4.9,5.4,72,0.00,,,0.00,WUHU216HW,2013-10-06 07:41:00,
2013-10-06 02:46:00,44.5,36.0,29.89,SW,225,3.6,6.9,72,0.00,,,0.00,WUHU216HW,2013-10-06 07:46:00,
2013-10-06 02:51:00,44.3,35.8,29.89,SW,225,4.7,7.6,72,0.00,,,0.00,WUHU216HW,2013-10-06 07:51:00,
2013-10-06 02:56:00,44.3,35.8,29.89,NW,315,3.8,7.6,72,0.00,,,0.00,WUHU216HW,2013-10-06 07:56:00,
2013-10-06 03:01:00,44.3,35.8,29.89,WSW,248,4.7,5.8,72,0.00,,,0.00,WUHU216HW,2013-10-06 08:01:00,
2013-10-06 03:06:00,44.1,36.0,29.88,WSW,248,7.6,8.1,73,0.00,,,0.00,WUHU216HW,2013-10-06 08:06:00,
2013-10-06 03:11:00,43.9,35.8,29.88,SW,225,2.7,8.1,73,0.00,,,0.00,WUHU216HW,2013-10-06 08:11:00,
2013-10-06 03:16:00,43.9,36.2,29.88,WSW,248,6.0,7.6,74,0.00,,,0.00,WUHU216HW,2013-10-06 08:16:00,
2013-10-06 03:21:00,43.7,35.6,29.87,West,270,5.6,7.4,73,0.00,,,0.00,WUHU216HW,2013-10-06 08:21:00,
2013-10-06 03:26:00,43.7,35.6,29.88,West,270,4.7,7.4,73,0.00,,,0.00,WUHU216HW,2013-10-06 08:26:00,
2013-10-06 03:31:00,43.9,36.2,29.87,WSW,248,3.4,8.9,74,0.00,,,0.00,WUHU216HW,2013-10-06 08:31:00,
2013-10-06 03:36:00,43.9,36.2,29.87,SW,225,5.4,8.9,74,0.00,,,0.00,WUHU216HW,2013-10-06 08:36:00,
2013-10-06 03:41:00,43.9,35.8,29.87,SSW,203,4.5,8.1,73,0.00,,,0.00,WUHU216HW,2013-10-06 08:41:00,
2013-10-06 03:46:00,43.9,36.2,29.87,WNW,293,6.9,8.1,74,0.00,,,0.00,WUHU216HW,2013-10-06 08:46:00,
2013-10-06 03:51:00,43.9,36.2,29.87,West,270,4.5,8.1,74,0.00,,,0.00,WUHU216HW,2013-10-06 08:51:00,
2013-10-06 03:56:00,43.9,36.2,29.87,SSW,203,5.4,7.4,74,0.00,,,0.00,WUHU216HW,2013-10-06 08:56:00,
2013-10-06 04:01:00,44.1,36.4,29.87,West,270,2.7,9.6,74,0.00,,,0.00,WUHU216HW,2013-10-06 09:01:00,
2013-10-06 04:06:00,44.1,36.4,29.86,West,270,1.3,9.6,74,0.00,,,0.00,WUHU216HW,2013-10-06 09:06:00,
2013-10-06 04:09:00,44.3,36.5,29.86,WNW,293,2.2,6.5,74,0.00,,,0.00,WUHU216HW,2013-10-06 09:09:00,
2013-10-06 04:14:00,44.3,36.5,29.86,WSW,248,4.3,5.1,74,0.00,,,0.00,WUHU216HW,2013-10-06 09:14:00,
2013-10-06 04:19:00,44.3,36.5,29.86,SW,225,3.6,5.4,74,0.00,,,0.00,WUHU216HW,2013-10-06 09:19:00,
2013-10-06 04:24:00,44.1,36.4,29.87,West,270,4.9,6.3,74,0.00,,,0.00,WUHU216HW,2013-10-06 09:24:00,
2013-10-06 04:29:00,44.1,36.4,29.87,NNW,338,8.1,9.6,74,0.00,,,0.00,WUHU216HW,2013-10-06 09:29:00,
2013-10-06 04:34:00,44.3,36.5,29.87,West,270,8.1,9.8,74,0.00,,,0.00,WUHU216HW,2013-10-06 09:34:00,
2013-10-06 04:39:00,44.8,37.0,29.87,WSW,248,4.7,12.8,74,0.00,,,0.00,WUHU216HW,2013-10-06 09:39:00,
2013-10-06 04:44:00,45.4,37.5,29.87,NW,315,8.5,12.8,74,0.00,,,0.00,WUHU216HW,2013-10-06 09:44:00,
2013-10-06 04:49:00,45.7,37.5,29.87,WNW,293,9.2,12.8,73,0.00,,,0.00,WUHU216HW,2013-10-06 09:49:00,
2013-10-06 04:54:00,45.7,37.5,29.87,WNW,293,9.2,12.8,73,0.00,,,0.00,WUHU216HW,2013-10-06 09:54:00,
2013-10-06 04:59:00,45.9,37.7,29.87,West,270,11.2,11.2,73,0.00,,,0.00,WUHU216HW,2013-10-06 09:59:00,
2013-10-06 05:04:00,45.9,37.5,29.87,West,270,10.3,11.2,72,0.00,,,0.00,WUHU216HW,2013-10-06 10:04:00,
2013-10-06 05:09:00,45.9,37.5,29.87,West,270,11.6,12.1,72,0.00,,,0.00,WUHU216HW,2013-10-06 10:09:00,
2013-10-06 05:14:00,46.1,37.6,29.87,WNW,293,6.7,12.1,72,0.00,,,0.00,WUHU216HW,2013-10-06 10:14:00,
2013-10-06 05:19:00,45.9,37.5,29.87,West,270,7.6,17.2,72,0.00,,,0.00,WUHU216HW,2013-10-06 10:19:00,
2013-10-06 05:24:00,45.7,37.9,29.87,WSW,248,6.9,17.2,74,0.00,,,0.00,WUHU216HW,2013-10-06 10:24:00,
2013-10-06 05:29:00,45.7,38.3,29.87,WNW,293,12.5,16.3,75,0.00,,,0.00,WUHU216HW,2013-10-06 10:29:00,
2013-10-06 05:34:00,45.5,38.1,29.87,SSW,203,9.8,13.4,75,0.00,,,0.00,WUHU216HW,2013-10-06 10:34:00,
2013-10-06 05:39:00,45.5,38.1,29.87,WNW,293,11.9,12.5,75,0.00,,,0.00,WUHU216HW,2013-10-06 10:39:00,
2013-10-06 05:44:00,45.7,38.3,29.87,West,270,9.4,12.8,75,0.00,,,0.00,WUHU216HW,2013-10-06 10:44:00,
2013-10-06 05:49:00,45.7,38.3,29.87,West,270,11.4,12.8,75,0.00,,,0.00,WUHU216HW,2013-10-06 10:49:00,
2013-10-06 05:54:00,45.7,38.3,29.87,West,270,7.2,12.8,75,0.00,,,0.00,WUHU216HW,2013-10-06 10:54:00,
2013-10-06 05:59:00,45.7,38.3,29.86,WNW,293,11.6,11.6,75,0.00,,,0.00,WUHU216HW,2013-10-06 10:59:00,
2013-10-06 06:04:00,45.9,38.4,29.86,WNW,293,10.3,11.9,75,0.00,,,0.00,WUHU216HW,2013-10-06 11:04:00,
2013-10-06 06:09:00,45.7,38.3,29.86,West,270,11.4,14.1,75,0.00,,,0.00,WUHU216HW,2013-10-06 11:09:00,
2013-10-06 06:14:00,45.7,38.3,29.86,West,270,10.3,17.2,75,0.00,,,0.00,WUHU216HW,2013-10-06 11:14:00,
2013-10-06 06:19:00,45.9,38.4,29.86,West,270,9.4,17.2,75,0.00,,,0.00,WUHU216HW,2013-10-06 11:19:00,
2013-10-06 06:24:00,45.9,38.4,29.86,West,270,11.4,15.7,75,0.00,,,0.00,WUHU216HW,2013-10-06 11:24:00,
2013-10-06 06:29:00,46.1,38.6,29.86,West,270,9.4,15.7,75,0.00,,,0.00,WUHU216HW,2013-10-06 11:29:00,
2013-10-06 06:34:00,46.1,38.6,29.86,WNW,293,6.5,13.6,75,0.00,,,0.00,WUHU216HW,2013-10-06 11:34:00,
2013-10-06 06:39:00,46.1,38.6,29.86,SSW,203,10.5,11.9,75,0.00,,,0.00,WUHU216HW,2013-10-06 11:39:00,
2013-10-06 06:44:00,46.1,38.3,29.86,NW,315,9.4,11.9,74,0.00,,,0.00,WUHU216HW,2013-10-06 11:44:00,
2013-10-06 06:49:00,45.7,37.9,29.86,WSW,248,9.4,12.1,74,0.00,,,0.00,WUHU216HW,2013-10-06 11:49:00,
2013-10-06 06:54:00,45.9,38.4,29.87,West,270,11.4,15.9,75,0.00,,,0.00,WUHU216HW,2013-10-06 11:54:00,
2013-10-06 06:59:00,46.1,38.6,29.86,WNW,293,4.7,15.9,75,0.00,,,0.00,WUHU216HW,2013-10-06 11:59:00,
2013-10-06 07:04:00,46.1,38.6,29.86,West,270,15.9,15.9,75,0.00,,,0.00,WUHU216HW,2013-10-06 12:04:00,
2013-10-06 07:09:00,46.1,38.6,29.86,West,270,11.6,15.9,75,0.00,,,0.00,WUHU216HW,2013-10-06 12:09:00,
2013-10-06 07:14:00,46.3,38.8,29.86,WNW,293,7.6,15.9,75,0.00,,,0.00,WUHU216HW,2013-10-06 12:14:00,
2013-10-06 07:19:00,46.3,38.8,29.86,WSW,248,8.1,13.6,75,0.00,,,0.00,WUHU216HW,2013-10-06 12:19:00,
2013-10-06 07:24:00,46.3,38.8,29.86,WSW,248,10.5,13.6,75,0.00,,,0.00,WUHU216HW,2013-10-06 12:24:00,
2013-10-06 07:29:00,46.4,39.0,29.87,WNW,293,7.8,12.8,75,0.00,,,0.00,WUHU216HW,2013-10-06 12:29:00,
2013-10-06 07:34:00,46.4,39.3,29.87,West,270,11.2,12.1,76,0.00,,,0.00,WUHU216HW,2013-10-06 12:34:00,
2013-10-06 07:39:00,46.4,39.0,29.88,WNW,293,7.2,12.8,75,0.00,,,0.00,WUHU216HW,2013-10-06 12:39:00,
2013-10-06 07:44:00,46.4,39.0,29.88,SW,225,14.5,14.5,75,0.00,,,0.00,WUHU216HW,2013-10-06 12:44:00,
2013-10-06 07:49:00,46.6,39.2,29.88,WNW,293,8.1,15.7,75,0.00,,,0.00,WUHU216HW,2013-10-06 12:49:00,
2013-10-06 07:54:00,46.6,39.2,29.88,NW,315,14.5,15.7,75,0.00,,,0.00,WUHU216HW,2013-10-06 12:54:00,
2013-10-06 07:59:00,46.8,39.3,29.88,WNW,293,13.9,14.5,75,0.00,,,0.00,WUHU216HW,2013-10-06 12:59:00,
2013-10-06 08:04:00,46.8,39.3,29.88,WNW,293,10.3,14.5,75,0.00,,,0.00,WUHU216HW,2013-10-06 13:04:00,
2013-10-06 08:09:00,46.8,39.3,29.88,NW,315,10.7,13.9,75,0.00,,,0.00,WUHU216HW,2013-10-06 13:09:00,
2013-10-06 08:14:00,46.8,39.3,29.88,NW,315,12.5,13.6,75,0.00,,,0.00,WUHU216HW,2013-10-06 13:14:00,
2013-10-06 08:19:00,46.8,39.3,29.88,West,270,11.4,13.6,75,0.00,,,0.00,WUHU216HW,2013-10-06 13:19:00,
2013-10-06 08:24:00,46.8,39.6,29.89,WNW,293,8.3,12.5,76,0.00,,,0.00,WUHU216HW,2013-10-06 13:24:00,
2013-10-06 08:29:00,47.0,39.8,29.89,WNW,293,13.0,13.0,76,0.00,,,0.00,WUHU216HW,2013-10-06 13:29:00,
2013-10-06 08:34:00,47.2,39.6,29.89,NNW,338,8.3,15.4,75,0.00,,,0.00,WUHU216HW,2013-10-06 13:34:00,
2013-10-06 08:39:00,47.2,39.6,29.89,NW,315,6.9,15.4,75,0.00,,,0.00,WUHU216HW,2013-10-06 13:39:00,
2013-10-06 08:44:00,47.2,40.0,29.89,WNW,293,7.6,14.1,76,0.00,,,0.00,WUHU216HW,2013-10-06 13:44:00,
2013-10-06 08:49:00,47.5,40.3,29.89,West,270,9.8,13.4,76,0.00,,,0.00,WUHU216HW,2013-10-06 13:49:00,
2013-10-06 08:54:00,47.7,40.2,29.89,WNW,293,12.1,17.2,75,0.00,,,0.00,WUHU216HW,2013-10-06 13:54:00,
2013-10-06 08:59:00,47.7,40.2,29.89,NW,315,14.5,17.2,75,0.00,,,0.00,WUHU216HW,2013-10-06 13:59:00,
2013-10-06 09:04:00,47.5,40.0,29.89,SSW,203,9.8,15.4,75,0.00,,,0.00,WUHU216HW,2013-10-06 14:04:00,
2013-10-06 09:09:00,47.7,40.4,29.90,West,270,12.8,15.4,76,0.00,,,0.00,WUHU216HW,2013-10-06 14:09:00,
2013-10-06 09:14:00,47.5,40.3,29.90,West,270,12.3,15.0,76,0.00,,,0.00,WUHU216HW,2013-10-06 14:14:00,
2013-10-06 09:19:00,47.3,40.5,29.90,WNW,293,16.8,16.8,77,0.00,,,0.00,WUHU216HW,2013-10-06 14:19:00,
2013-10-06 09:24:00,47.3,40.5,29.90,NW,315,11.4,16.8,77,0.00,,,0.00,WUHU216HW,2013-10-06 14:24:00,
2013-10-06 09:29:00,47.3,40.5,29.90,WNW,293,13.4,16.8,77,0.00,,,0.00,WUHU216HW,2013-10-06 14:29:00,
2013-10-06 09:34:00,47.5,40.6,29.90,NW,315,14.8,16.1,77,0.00,,,0.00,WUHU216HW,2013-10-06 14:34:00,
2013-10-06 09:39:00,47.9,40.6,29.90,NW,315,13.6,16.1,76,0.00,,,0.00,WUHU216HW,2013-10-06 14:39:00,
2013-10-06 09:44:00,48.1,40.8,29.90,WNW,293,13.9,16.1,76,0.00,,,0.00,WUHU216HW,2013-10-06 14:44:00,
2013-10-06 09:49:00,48.6,41.7,29.90,WNW,293,9.4,13.9,77,0.00,,,0.00,WUHU216HW,2013-10-06 14:49:00,
2013-10-06 09:54:00,49.3,41.7,29.90,NW,315,13.6,13.9,75,0.00,,,0.00,WUHU216HW,2013-10-06 14:54:00,
2013-10-06 09:59:00,49.3,41.0,29.91,WNW,293,9.8,13.6,73,0.00,,,0.00,WUHU216HW,2013-10-06 14:59:00,
2013-10-06 10:04:00,49.3,40.7,29.91,NNW,338,12.1,15.7,72,0.00,,,0.00,WUHU216HW,2013-10-06 15:04:00,
2013-10-06 10:09:00,49.3,40.7,29.92,NW,315,13.2,17.4,72,0.00,,,0.00,WUHU216HW,2013-10-06 15:09:00,
2013-10-06 10:14:00,50.0,41.7,29.92,NNW,338,6.3,17.4,73,0.00,,,0.00,WUHU216HW,2013-10-06 15:14:00,
2013-10-06 10:19:00,50.2,41.2,29.92,NNW,338,7.2,14.3,71,0.00,,,0.00,WUHU216HW,2013-10-06 15:19:00,
2013-10-06 10:24:00,50.0,41.1,29.92,NW,315,12.8,14.1,71,0.00,,,0.00,WUHU216HW,2013-10-06 15:24:00,
2013-10-06 10:29:00,49.9,41.2,29.92,North,0,14.5,15.9,72,0.00,,,0.00,WUHU216HW,2013-10-06 15:29:00,
2013-10-06 10:34:00,49.7,41.1,29.92,NW,315,12.8,15.9,72,0.00,,,0.00,WUHU216HW,2013-10-06 15:34:00,
2013-10-06 10:39:00,49.5,41.1,29.92,NW,315,10.5,15.7,73,0.00,,,0.00,WUHU216HW,2013-10-06 15:39:00,
2013-10-06 10:44:00,49.3,41.3,29.92,West,270,8.1,13.0,74,0.00,,,0.00,WUHU216HW,2013-10-06 15:44:00,
2013-10-06 10:49:00,49.3,41.3,29.92,NNW,338,9.6,16.1,74,0.00,,,0.00,WUHU216HW,2013-10-06 15:49:00,
2013-10-06 10:54:00,49.3,41.0,29.92,West,270,18.6,18.6,73,0.00,,,0.00,WUHU216HW,2013-10-06 15:54:00,
2013-10-06 10:58:00,49.3,41.0,29.92,NW,315,14.5,18.6,73,0.00,,,0.00,WUHU216HW,2013-10-06 15:58:00,
2013-10-06 11:03:00,49.3,41.3,29.93,NW,315,16.1,18.6,74,0.00,,,0.00,WUHU216HW,2013-10-06 16:03:00,
2013-10-06 11:08:00,49.3,41.3,29.93,NW,315,6.9,17.2,74,0.00,,,0.00,WUHU216HW,2013-10-06 16:08:00,
2013-10-06 11:13:00,49.3,41.3,29.93,NW,315,12.8,17.2,74,0.00,,,0.00,WUHU216HW,2013-10-06 16:13:00,
2013-10-06 11:18:00,49.7,41.3,29.93,WNW,293,10.7,15.0,73,0.00,,,0.00,WUHU216HW,2013-10-06 16:18:00,
2013-10-06 11:23:00,50.2,41.6,29.92,WSW,248,12.5,15.9,72,0.00,,,0.00,WUHU216HW,2013-10-06 16:23:00,
2013-10-06 11:28:00,50.6,42.0,29.92,WNW,293,11.0,15.9,72,0.00,,,0.00,WUHU216HW,2013-10-06 16:28:00,
2013-10-06 11:33:00,51.1,42.1,29.92,West,270,13.9,14.3,71,0.00,,,0.00,WUHU216HW,2013-10-06 16:33:00,
2013-10-06 11:38:00,51.3,41.9,29.93,WNW,293,13.2,14.3,70,0.00,,,0.00,WUHU216HW,2013-10-06 16:38:00,
2013-10-06 11:43:00,51.3,41.5,29.93,NW,315,10.3,17.0,69,0.00,,,0.00,WUHU216HW,2013-10-06 16:43:00,
2013-10-06 11:48:00,52.6,43.5,29.92,WNW,293,9.6,17.0,71,0.00,,,0.00,WUHU216HW,2013-10-06 16:48:00,
2013-10-06 11:53:00,54.2,43.5,29.93,NW,315,12.5,14.1,67,0.00,,,0.00,WUHU216HW,2013-10-06 16:53:00,
2013-10-06 11:58:00,54.0,42.5,29.93,WNW,293,9.2,13.2,65,0.00,,,0.00,WUHU216HW,2013-10-06 16:58:00,
2013-10-06 12:03:00,53.3,41.8,29.93,NW,315,16.3,16.3,65,0.00,,,0.00,WUHU216HW,2013-10-06 17:03:00,
2013-10-06 12:08:00,53.1,41.6,29.92,NW,315,15.4,16.3,65,0.00,,,0.00,WUHU216HW,2013-10-06 17:08:00,
2013-10-06 12:13:00,52.9,41.9,29.93,NW,315,13.4,16.3,66,0.00,,,0.00,WUHU216HW,2013-10-06 17:13:00,
2013-10-06 12:18:00,53.5,42.4,29.93,WNW,293,13.4,16.8,66,0.00,,,0.00,WUHU216HW,2013-10-06 17:18:00,
2013-10-06 12:23:00,53.3,41.4,29.93,WNW,293,16.8,19.5,64,0.00,,,0.00,WUHU216HW,2013-10-06 17:23:00,
2013-10-06 12:28:00,52.7,41.3,29.94,NNW,338,9.8,19.5,65,0.00,,,0.00,WUHU216HW,2013-10-06 17:28:00,
2013-10-06 12:33:00,52.7,41.3,29.93,WNW,293,9.2,16.8,65,0.00,,,0.00,WUHU216HW,2013-10-06 17:33:00,
2013-10-06 12:38:00,53.6,42.1,29.93,NW,315,9.8,15.7,65,0.00,,,0.00,WUHU216HW,2013-10-06 17:38:00,
2013-10-06 12:43:00,53.8,42.3,29.93,NW,315,11.2,12.1,65,0.00,,,0.00,WUHU216HW,2013-10-06 17:43:00,
2013-10-06 12:48:00,53.8,42.3,29.93,West,270,14.8,14.8,65,0.00,,,0.00,WUHU216HW,2013-10-06 17:48:00,
2013-10-06 12:53:00,53.3,41.8,29.93,West,270,12.8,14.8,65,0.00,,,0.00,WUHU216HW,2013-10-06 17:53:00,
2013-10-06 12:58:00,53.6,42.1,29.93,WNW,293,9.8,14.8,65,0.00,,,0.00,WUHU216HW,2013-10-06 17:58:00,
2013-10-06 13:03:00,54.7,42.8,29.93,WNW,293,10.7,12.8,64,0.00,,,0.00,WUHU216HW,2013-10-06 18:03:00,
2013-10-06 13:08:00,54.7,42.3,29.92,NW,315,14.1,14.1,63,0.00,,,0.00,WUHU216HW,2013-10-06 18:08:00,
2013-10-06 13:13:00,54.2,42.2,29.92,West,270,14.8,14.8,64,0.00,,,0.00,WUHU216HW,2013-10-06 18:13:00,
2013-10-06 13:18:00,54.0,42.0,29.92,WNW,293,14.3,14.8,64,0.00,,,0.00,WUHU216HW,2013-10-06 18:18:00,
2013-10-06 13:23:00,54.0,42.5,29.92,West,270,10.1,15.2,65,0.00,,,0.00,WUHU216HW,2013-10-06 18:23:00,
2013-10-06 13:28:00,54.0,42.5,29.92,West,270,11.9,15.2,65,0.00,,,0.00,WUHU216HW,2013-10-06 18:28:00,
2013-10-06 13:33:00,53.8,42.7,29.92,SW,225,10.3,13.0,66,0.00,,,0.00,WUHU216HW,2013-10-06 18:33:00,
2013-10-06 13:38:00,53.8,43.1,29.92,WSW,248,12.3,14.3,67,0.00,,,0.00,WUHU216HW,2013-10-06 18:38:00,
2013-10-06 13:43:00,53.6,43.3,29.92,West,270,10.7,14.5,68,0.00,,,0.00,WUHU216HW,2013-10-06 18:43:00,
2013-10-06 13:48:00,53.6,43.3,29.91,West,270,10.3,14.5,68,0.00,,,0.00,WUHU216HW,2013-10-06 18:48:00,
2013-10-06 13:53:00,54.4,43.7,29.91,West,270,10.7,14.3,67,0.00,,,0.00,WUHU216HW,2013-10-06 18:53:00,
2013-10-06 13:58:00,54.5,44.2,29.92,NW,315,14.8,15.0,68,0.00,,,0.00,WUHU216HW,2013-10-06 18:58:00,
2013-10-06 14:03:00,54.4,44.0,29.91,SW,225,13.0,15.0,68,0.00,,,0.00,WUHU216HW,2013-10-06 19:03:00,
2013-10-06 14:08:00,54.7,44.7,29.91,WNW,293,11.6,14.8,69,0.00,,,0.00,WUHU216HW,2013-10-06 19:08:00,
2013-10-06 14:13:00,54.9,44.6,29.91,NNW,338,9.8,13.0,68,0.00,,,0.00,WUHU216HW,2013-10-06 19:13:00,
2013-10-06 14:18:00,55.6,44.4,29.90,WSW,248,12.1,12.8,66,0.00,,,0.00,WUHU216HW,2013-10-06 19:18:00,
2013-10-06 14:23:00,55.1,43.9,29.90,West,270,11.2,15.9,66,0.00,,,0.00,WUHU216HW,2013-10-06 19:23:00,
2013-10-06 14:28:00,55.1,44.7,29.90,WNW,293,6.9,15.9,68,0.00,,,0.00,WUHU216HW,2013-10-06 19:28:00,
2013-10-06 14:33:00,55.1,44.7,29.90,West,270,6.5,11.2,68,0.00,,,0.00,WUHU216HW,2013-10-06 19:33:00,
2013-10-06 14:38:00,54.7,44.4,29.91,West,270,10.5,11.4,68,0.00,,,0.00,WUHU216HW,2013-10-06 19:38:00,
2013-10-06 14:43:00,54.4,44.5,29.90,WNW,293,9.8,11.4,69,0.00,,,0.00,WUHU216HW,2013-10-06 19:43:00,
2013-10-06 14:48:00,54.0,43.7,29.90,WSW,248,8.5,10.5,68,0.00,,,0.00,WUHU216HW,2013-10-06 19:48:00,
2013-10-06 14:53:00,54.0,44.1,29.90,WNW,293,6.3,11.4,69,0.00,,,0.00,WUHU216HW,2013-10-06 19:53:00,
2013-10-06 14:58:00,54.0,44.1,29.90,WNW,293,12.8,12.8,69,0.00,,,0.00,WUHU216HW,2013-10-06 19:58:00,
2013-10-06 15:03:00,54.0,44.1,29.90,West,270,10.5,12.8,69,0.00,,,0.00,WUHU216HW,2013-10-06 20:03:00,
2013-10-06 15:08:00,54.0,44.1,29.90,WNW,293,6.3,12.8,69,0.00,,,0.00,WUHU216HW,2013-10-06 20:08:00,
2013-10-06 15:13:00,53.8,44.3,29.90,NW,315,8.1,12.5,70,0.00,,,0.00,WUHU216HW,2013-10-06 20:13:00,
2013-10-06 15:18:00,54.0,44.8,29.91,NW,315,10.5,10.7,71,0.00,,,0.00,WUHU216HW,2013-10-06 20:18:00,
2013-10-06 15:23:00,54.0,44.8,29.91,WNW,293,12.1,12.1,71,0.00,,,0.00,WUHU216HW,2013-10-06 20:23:00,
2013-10-06 15:28:00,53.8,44.3,29.92,WNW,293,8.1,12.1,70,0.00,,,0.00,WUHU216HW,2013-10-06 20:28:00,
2013-10-06 15:33:00,53.6,44.5,29.92,WNW,293,12.1,14.5,71,0.00,,,0.00,WUHU216HW,2013-10-06 20:33:00,
2013-10-06 15:38:00,53.5,44.3,29.91,NW,315,9.2,16.3,71,0.00,,,0.00,WUHU216HW,2013-10-06 20:38:00,
2013-10-06 15:43:00,53.5,44.3,29.91,NW,315,10.5,16.3,71,0.00,,,0.00,WUHU216HW,2013-10-06 20:43:00,
2013-10-06 15:48:00,53.3,44.5,29.91,NW,315,8.5,14.5,72,0.00,,,0.00,WUHU216HW,2013-10-06 20:48:00,
2013-10-06 15:53:00,52.9,44.8,29.92,NW,315,7.6,11.6,74,0.00,,,0.00,WUHU216HW,2013-10-06 20:53:00,
2013-10-06 15:58:00,52.6,44.9,29.92,WNW,293,8.5,14.5,75,0.00,,,0.00,WUHU216HW,2013-10-06 20:58:00,
2013-10-06 16:03:00,52.2,45.2,29.92,NNW,338,6.3,14.5,77,0.00,,,0.00,WUHU216HW,2013-10-06 21:03:00,
2013-10-06 16:08:00,52.0,45.4,29.93,WNW,293,8.3,11.4,78,0.00,,,0.00,WUHU216HW,2013-10-06 21:08:00,
2013-10-06 16:13:00,51.8,45.5,29.93,WNW,293,8.3,9.6,79,0.00,,,0.00,WUHU216HW,2013-10-06 21:13:00,
2013-10-06 16:18:00,51.7,45.7,29.93,NW,315,6.3,9.6,80,0.00,,,0.00,WUHU216HW,2013-10-06 21:18:00,
2013-10-06 16:23:00,51.5,45.8,29.93,WNW,293,7.6,12.1,81,0.01,,,0.01,WUHU216HW,2013-10-06 21:23:00,
2013-10-06 16:28:00,51.5,46.2,29.93,NNW,338,11.4,13.9,82,0.01,,,0.01,WUHU216HW,2013-10-06 21:28:00,
2013-10-06 16:33:00,51.1,45.8,29.93,WNW,293,10.7,13.9,82,0.01,,,0.01,WUHU216HW,2013-10-06 21:33:00,
2013-10-06 16:38:00,50.9,45.6,29.93,NW,315,10.1,12.8,82,0.01,,,0.01,WUHU216HW,2013-10-06 21:38:00,
2013-10-06 16:43:00,50.8,45.7,29.93,WNW,293,7.6,12.3,83,0.01,,,0.01,WUHU216HW,2013-10-06 21:43:00,
2013-10-06 16:48:00,50.8,45.7,29.93,WNW,293,7.6,11.6,83,0.01,,,0.01,WUHU216HW,2013-10-06 21:48:00,
2013-10-06 16:53:00,50.8,46.1,29.93,WNW,293,8.3,11.6,84,0.01,,,0.01,WUHU216HW,2013-10-06 21:53:00,
2013-10-06 16:58:00,50.8,46.1,29.94,WNW,293,6.0,11.0,84,0.01,,,0.01,WUHU216HW,2013-10-06 21:58:00,
2013-10-06 17:03:00,50.6,45.9,29.94,NW,315,5.4,9.6,84,0.01,,,0.01,WUHU216HW,2013-10-06 22:03:00,
2013-10-06 17:08:00,50.6,45.9,29.94,NW,315,6.5,8.5,84,0.01,,,0.01,WUHU216HW,2013-10-06 22:08:00,
2013-10-06 17:13:00,50.6,45.9,29.93,West,270,7.6,8.3,84,0.01,,,0.01,WUHU216HW,2013-10-06 22:13:00,
2013-10-06 17:18:00,50.6,46.2,29.94,WNW,293,6.3,8.9,85,0.01,,,0.01,WUHU216HW,2013-10-06 22:18:00,
2013-10-06 17:23:00,50.6,45.9,29.94,WNW,293,5.6,9.8,84,0.00,,,0.01,WUHU216HW,2013-10-06 22:23:00,
2013-10-06 17:28:00,50.6,45.9,29.94,NW,315,8.5,14.3,84,0.00,,,0.01,WUHU216HW,2013-10-06 22:28:00,
2013-10-06 17:33:00,50.8,46.1,29.95,WNW,293,8.5,14.3,84,0.00,,,0.01,WUHU216HW,2013-10-06 22:33:00,
2013-10-06 17:38:00,50.6,45.9,29.95,WNW,293,9.6,15.0,84,0.00,,,0.01,WUHU216HW,2013-10-06 22:38:00,
2013-10-06 17:43:00,50.6,45.9,29.95,NW,315,11.6,15.0,84,0.00,,,0.01,WUHU216HW,2013-10-06 22:43:00,
2013-10-06 17:48:00,50.6,45.5,29.95,WNW,293,10.5,13.4,83,0.00,,,0.01,WUHU216HW,2013-10-06 22:48:00,
2013-10-06 17:53:00,50.4,45.4,29.95,WNW,293,8.1,13.6,83,0.00,,,0.01,WUHU216HW,2013-10-06 22:53:00,
2013-10-06 17:58:00,50.4,45.4,29.96,WNW,293,5.8,13.6,83,0.00,,,0.01,WUHU216HW,2013-10-06 22:58:00,
2013-10-06 18:03:00,50.4,45.4,29.96,WNW,293,8.1,13.2,83,0.00,,,0.01,WUHU216HW,2013-10-06 23:03:00,
2013-10-06 18:08:00,50.4,45.1,29.96,WNW,293,10.1,15.2,82,0.00,,,0.01,WUHU216HW,2013-10-06 23:08:00,
2013-10-06 18:13:00,50.4,45.1,29.96,NW,315,6.5,15.2,82,0.00,,,0.01,WUHU216HW,2013-10-06 23:13:00,
2013-10-06 18:18:00,50.2,44.9,29.96,WNW,293,6.9,13.4,82,0.00,,,0.01,WUHU216HW,2013-10-06 23:18:00,
2013-10-06 18:23:00,50.2,45.2,29.96,NW,315,8.1,13.4,83,0.00,,,0.01,WUHU216HW,2013-10-06 23:23:00,
2013-10-06 18:28:00,50.2,45.2,29.96,NW,315,11.2,12.8,83,0.00,,,0.01,WUHU216HW,2013-10-06 23:28:00,
2013-10-06 18:33:00,50.0,45.0,29.96,North,0,6.0,11.2,83,0.00,,,0.01,WUHU216HW,2013-10-06 23:33:00,
2013-10-06 18:38:00,50.0,44.7,29.96,NW,315,7.4,13.4,82,0.00,,,0.01,WUHU216HW,2013-10-06 23:38:00,
2013-10-06 18:43:00,50.0,44.7,29.96,NW,315,7.2,13.4,82,0.00,,,0.01,WUHU216HW,2013-10-06 23:43:00,
2013-10-06 18:48:00,50.0,44.7,29.96,WNW,293,7.6,12.1,82,0.00,,,0.01,WUHU216HW,2013-10-06 23:48:00,
2013-10-06 18:53:00,50.0,45.0,29.97,NW,315,7.4,12.1,83,0.00,,,0.01,WUHU216HW,2013-10-06 23:53:00,
2013-10-06 18:58:00,50.0,44.7,29.97,WNW,293,6.9,11.2,82,0.00,,,0.01,WUHU216HW,2013-10-06 23:58:00,
2013-10-06 19:03:00,50.0,44.7,29.97,NW,315,8.5,11.6,82,0.00,,,0.01,WUHU216HW,2013-10-07 00:03:00,
2013-10-06 19:08:00,50.0,44.7,29.97,WNW,293,10.7,12.1,82,0.00,,,0.01,WUHU216HW,2013-10-07 00:08:00,
2013-10-06 19:13:00,50.0,44.7,29.97,NW,315,8.9,12.1,82,0.00,,,0.01,WUHU216HW,2013-10-07 00:13:00,
2013-10-06 19:18:00,50.0,44.7,29.98,NW,315,7.6,10.7,82,0.00,,,0.01,WUHU216HW,2013-10-07 00:18:00,
2013-10-06 19:23:00,50.0,44.7,29.98,WNW,293,6.7,9.8,82,0.00,,,0.01,WUHU216HW,2013-10-07 00:23:00,
2013-10-06 19:28:00,50.0,44.7,29.98,NW,315,4.0,10.1,82,0.00,,,0.01,WUHU216HW,2013-10-07 00:28:00,
2013-10-06 19:33:00,50.0,44.7,29.99,WNW,293,4.9,10.1,82,0.00,,,0.01,WUHU216HW,2013-10-07 00:33:00,
2013-10-06 19:38:00,50.0,44.7,29.98,NNW,338,8.5,10.5,82,0.00,,,0.01,WUHU216HW,2013-10-07 00:38:00,
2013-10-06 19:43:00,50.0,44.7,29.98,WNW,293,9.8,10.5,82,0.00,,,0.01,WUHU216HW,2013-10-07 00:43:00,
2013-10-06 19:48:00,50.0,44.4,29.98,NW,315,12.1,12.1,81,0.00,,,0.01,WUHU216HW,2013-10-07 00:48:00,
2013-10-06 19:53:00,49.9,44.2,29.98,NNW,338,9.6,12.1,81,0.00,,,0.01,WUHU216HW,2013-10-07 00:53:00,
2013-10-06 19:58:00,49.7,44.4,29.98,NW,315,12.5,12.5,82,0.00,,,0.01,WUHU216HW,2013-10-07 00:58:00,
2013-10-06 20:03:00,49.7,44.0,29.99,NNW,338,11.4,12.5,81,0.00,,,0.01,WUHU216HW,2013-10-07 01:03:00,
2013-10-06 20:08:00,49.5,44.2,29.99,NW,315,8.3,12.8,82,0.00,,,0.01,WUHU216HW,2013-10-07 01:08:00,
2013-10-06 20:13:00,49.3,44.0,29.99,NW,315,5.4,12.8,82,0.00,,,0.01,WUHU216HW,2013-10-07 01:13:00,
2013-10-06 20:18:00,49.3,44.0,29.99,NNW,338,9.2,9.4,82,0.00,,,0.01,WUHU216HW,2013-10-07 01:18:00,
2013-10-06 20:23:00,49.0,43.7,29.99,WNW,293,6.9,9.2,82,0.00,,,0.01,WUHU216HW,2013-10-07 01:23:00,
2013-10-06 20:28:00,49.0,44.0,29.99,WNW,293,6.5,10.5,83,0.00,,,0.01,WUHU216HW,2013-10-07 01:28:00,
2013-10-06 20:33:00,48.8,43.8,29.99,WNW,293,7.6,10.5,83,0.00,,,0.01,WUHU216HW,2013-10-07 01:33:00,
2013-10-06 20:38:00,48.8,43.8,29.99,WNW,293,5.4,9.2,83,0.00,,,0.01,WUHU216HW,2013-10-07 01:38:00,
2013-10-06 20:43:00,48.6,43.7,29.99,NW,315,6.9,9.8,83,0.00,,,0.01,WUHU216HW,2013-10-07 01:43:00,
2013-10-06 20:48:00,48.6,43.7,29.99,NW,315,7.2,9.8,83,0.00,,,0.01,WUHU216HW,2013-10-07 01:48:00,
2013-10-06 20:53:00,48.4,43.5,29.99,NW,315,6.0,9.8,83,0.00,,,0.01,WUHU216HW,2013-10-07 01:53:00,
2013-10-06 20:58:00,48.4,43.5,30.00,NNW,338,5.4,9.8,83,0.00,,,0.01,WUHU216HW,2013-10-07 01:58:00,
2013-10-06 21:03:00,48.4,43.7,30.00,West,270,5.1,8.9,84,0.00,,,0.01,WUHU216HW,2013-10-07 02:03:00,
2013-10-06 21:08:00,48.4,43.5,30.00,NNW,338,4.3,7.6,83,0.00,,,0.01,WUHU216HW,2013-10-07 02:08:00,
2013-10-06 21:13:00,48.4,43.7,30.00,NNW,338,3.6,7.6,84,0.00,,,0.01,WUHU216HW,2013-10-07 02:13:00,
2013-10-06 21:18:00,48.6,43.9,30.00,NNW,338,8.1,8.1,84,0.00,,,0.01,WUHU216HW,2013-10-07 02:18:00,
2013-10-06 21:23:00,48.8,44.1,30.00,NW,315,5.4,8.3,84,0.00,,,0.01,WUHU216HW,2013-10-07 02:23:00,
2013-10-06 21:28:00,49.0,44.3,30.01,NW,315,6.5,8.3,84,0.00,,,0.01,WUHU216HW,2013-10-07 02:28:00,
2013-10-06 21:33:00,49.3,44.3,30.00,WNW,293,6.3,8.3,83,0.00,,,0.01,WUHU216HW,2013-10-07 02:33:00,
2013-10-06 21:38:00,49.5,44.5,30.00,WNW,293,5.1,9.2,83,0.00,,,0.01,WUHU216HW,2013-10-07 02:38:00,
2013-10-06 21:43:00,49.7,45.0,30.00,NW,315,4.3,9.2,84,0.00,,,0.01,WUHU216HW,2013-10-07 02:43:00,
2013-10-06 21:48:00,49.9,45.2,30.00,WNW,293,6.3,7.6,84,0.00,,,0.01,WUHU216HW,2013-10-07 02:48:00,
2013-10-06 21:53:00,50.0,45.0,30.01,NW,315,5.4,9.4,83,0.00,,,0.01,WUHU216HW,2013-10-07 02:53:00,
2013-10-06 21:58:00,50.2,45.2,30.01,WNW,293,5.8,9.4,83,0.00,,,0.01,WUHU216HW,2013-10-07 02:58:00,
2013-10-06 22:03:00,50.4,45.4,30.01,WNW,293,5.4,7.6,83,0.00,,,0.01,WUHU216HW,2013-10-07 03:03:00,
2013-10-06 22:08:00,50.8,45.5,30.01,WNW,293,6.9,7.6,82,0.00,,,0.01,WUHU216HW,2013-10-07 03:08:00,
2013-10-06 22:13:00,50.8,45.5,30.01,NW,315,5.1,9.2,82,0.00,,,0.01,WUHU216HW,2013-10-07 03:13:00,
2013-10-06 22:18:00,50.8,45.5,30.01,NW,315,4.9,9.2,82,0.00,,,0.01,WUHU216HW,2013-10-07 03:18:00,
2013-10-06 22:23:00,50.9,45.6,30.02,NW,315,5.8,8.5,82,0.00,,,0.01,WUHU216HW,2013-10-07 03:23:00,
2013-10-06 22:28:00,50.8,45.5,30.02,WNW,293,5.8,6.3,82,0.00,,,0.01,WUHU216HW,2013-10-07 03:28:00,
2013-10-06 22:33:00,50.4,45.1,30.02,NW,315,7.2,7.6,82,0.00,,,0.01,WUHU216HW,2013-10-07 03:33:00,
2013-10-06 22:38:00,50.2,44.9,30.02,NW,315,4.5,7.6,82,0.00,,,0.01,WUHU216HW,2013-10-07 03:38:00,
2013-10-06 22:43:00,50.0,45.0,30.02,WNW,293,3.8,7.2,83,0.00,,,0.01,WUHU216HW,2013-10-07 03:43:00,
2013-10-06 22:48:00,49.9,44.8,30.02,NNW,338,4.0,6.3,83,0.00,,,0.01,WUHU216HW,2013-10-07 03:48:00,
2013-10-06 22:53:00,49.7,44.6,30.02,WNW,293,4.7,6.9,83,0.00,,,0.01,WUHU216HW,2013-10-07 03:53:00,
2013-10-06 22:58:00,49.5,44.8,30.02,WNW,293,4.0,6.9,84,0.00,,,0.01,WUHU216HW,2013-10-07 03:58:00,
2013-10-06 23:01:00,49.3,44.3,30.02,NW,315,4.9,6.5,83,0.00,,,0.01,WUHU216HW,2013-10-07 04:01:00,
2013-10-06 23:06:00,49.1,44.1,30.02,WNW,293,3.1,6.5,83,0.00,,,0.01,WUHU216HW,2013-10-07 04:06:00,
2013-10-06 23:11:00,49.0,44.0,30.02,WNW,293,6.3,6.3,83,0.00,,,0.01,WUHU216HW,2013-10-07 04:11:00,
2013-10-06 23:16:00,48.6,43.9,30.02,WNW,293,4.0,6.3,84,0.00,,,0.01,WUHU216HW,2013-10-07 04:16:00,
2013-10-06 23:21:00,48.6,43.9,30.02,WNW,293,4.3,6.3,84,0.00,,,0.01,WUHU216HW,2013-10-07 04:21:00,
2013-10-06 23:26:00,48.4,44.1,30.02,WNW,293,3.8,5.4,85,0.00,,,0.01,WUHU216HW,2013-10-07 04:26:00,
2013-10-06 23:31:00,48.2,43.6,30.02,WNW,293,4.0,5.4,84,0.00,,,0.01,WUHU216HW,2013-10-07 04:31:00,
2013-10-06 23:36:00,48.2,43.6,30.02,NW,315,2.5,4.5,84,0.00,,,0.01,WUHU216HW,2013-10-07 04:36:00,
2013-10-06 23:41:00,48.1,43.5,30.02,WNW,293,3.1,4.0,84,0.00,,,0.01,WUHU216HW,2013-10-07 04:41:00,
2013-10-06 23:46:00,47.9,43.6,30.02,WNW,293,2.9,4.0,85,0.00,,,0.01,WUHU216HW,2013-10-07 04:46:00,
2013-10-06 23:51:00,47.9,43.6,30.02,WNW,293,2.7,3.1,85,0.00,,,0.01,WUHU216HW,2013-10-07 04:51:00,
2013-10-06 23:56:00,47.7,43.4,30.02,West,270,3.1,3.4,85,0.00,,,0.01,WUHU216HW,2013-10-07 04:56:00,